Погода в Посёлке совхоза им. Воровского

Россия / Республика Татарстан     55°41′57″N   53°09′38″E
темп.,
°C
ветер,
м/с
пор.,
м/с
влажн.,
%
обл.,
%
осадки,
мм/ч
давл.,
гПа
погр.,
м
18 января, вт
вт1800:00−8ююз7178689 0.0 1004596
03:00−8ююз81587100 0.0 1005624
06:00−7ююз81689100 0.1 1005645
09:00−6ююз81687100 0.1 1006628
12:00−3ююз91689100 0.2 1007746
15:00−3ююз81591100 0.4 1008672
18:00−3ююз71590100 0.3 1009664
21:00−3ююз71588100 0.3 1010619
19 января, ср
ср1900:00−1юз81690100 0.1 1011777
03:00−2юз81688100 0.2 1012750
06:00−2юз81687100 0.0 1012663
09:00−2юз81590100 0.0 1013656
12:00−2юз7149398 0.1 1014704
15:00−2юз6139481 0.4 1016665
18:00−3юз4995100 0.2 1017329
21:00−4юз259799 0.8 1018190
20 января, чт
чт2000:00
03:00−7ююз369597 0.4 1019121
06:00−8юз49925 0.0 1020172
09:00
12:00−6юз51192100 0.1 1022586
15:00−6юз5109099 0.1 1023428
18:00−11юз23955 0.0 102432
21:00−14ююз229853 0.0 102425
21 января, пт
пт2100:00−15ююз229976 0.0 102513
03:00−10ююз249897 0.0 102682
06:00−6ююз3492100 0.0 1026117
09:00−7ю249399 0.1 1027107
12:00−9ю23905 0.0 1028101
15:00−13юв11945 0.0 10289
18:00−18вюв1198100 0.0 10299
21:00−20вюв119990 0.0 10309
22 января, сб
сб2200:00−21в1110041 0.0 103110
03:00−22в1110037 0.0 10319
06:00−23в1110032 0.0 10319
09:00−21вюв229952 0.0 103221
12:00−12вюв129198 0.0 103277
15:00−15вюв2296100 0.0 103310
18:00−19вюв2298100 0.0 103411
21:00−21в1199100 0.0 10359